sat.trackr.live / text

‹ back to catalog

ONEWEB-0174

NORAD 48072 · 2021-025AG

PAYLOAD ACTIVE UNKNOWN

§ Identity

Operator
Country
UK
Launch date
2021-03-25
Launch site
VOSTO
Launch vehicle
Mass (kg)
RCS (m²)

Purposes: comms

External: N2YO · Heavens-Above · Gunter

§ Orbital elements

Epoch: 2026-05-25T01:11:50.470080Z

Period
109.63 min
Inclination
87.8946°
Eccentricity
0.0001832
Mean motion
13.13468405 rev/d
Perigee alt
1,208.4 km
Apogee alt
1,211.2 km
Semi-major
7,587.9 km
B*
-1.6401e-4
RAAN
324.8284°
Arg perigee
95.4795°
Mean anomaly
264.6543°
Rev number
25,079

§ Raw data

ONEWEB-01741 48072U 21025AG  26145.04988970 -.00000047  00000+0 -16401-3 0  99912 48072  87.8946 324.8284 0001832  95.4795 264.6543 13.13468405250797

JSON: /api/v1/satellites/48072 · /tle

For live sub-satellite position, see the globe view (requires WebGL).

§ Visibility from observer

Set your observer location to see the next 7 days of passes ≥ 10°. The values pass through the URL so the page stays shareable.

No JS? Fill the form by hand. The geolocation button needs JavaScript.